Location: Basses Si�yes
(44.0835°N, 6.2037°E)
Time: 03:02:41
(UTC+00:00)

Cosmos 44 Rocket - Pass Details

Date: 27 February 2020
Orbit: 659 x 731 km, 65.1° (Epoch: 03 April)

Event Time Altitude Azimuth Distance (km) Brightness Sun altitude
Rises 18:58:32 0° 323° (NW) 3,007 7.2 -18.4°
Reaches altitude 10° 19:00:51 10° 321° (NW) 2,097 6.4 -18.8°
Maximum altitude 19:05:34 67° 239° (WSW) 734 3.5 -19.7°
Enters shadow 19:08:51 20° 161° (SSE) 1,556 4.8 -20.3°
